User: anonymous   Login
Location: Unspecified
(0.0000°N, 0.0000°E)
Time: 01:08:37
(UTC+00:00)
Language:

STARLINK-31379 - Orbit

View from above orbital plane
View from above orbital plane
View from above satellite
View from above satellite

Ground track
Ground track

The orbit is defined by the following mean orbital elements,

1 58984U          26144.67993757 +.00000000 +00000-0 -55530-5 0 00001
2 58984  53.1608 304.0070 0001245  89.9928 270.1215 15.30188620    02
Epoch (UTC): 24 May 2026 16:19:06
Eccentricity: 0.0001245
inclination: 53.1608°
perigee height: 474 km
apogee height: 476 km
right ascension of ascending node: 304.0070°
argument of perigee: 89.9928°
revolutions per day: 15.30188620
mean anomaly at epoch: 270.1215°

The dashed part of the orbit path shows where the satellite is in the earth's shadow,  

DLR